• Join FlightAware (Why Join?)
  • Login
  • US Flag 
07:38AM EST


 

Airport Tracker/Info


-or-


 

Live Flight TrackerFlight Track Log ✈ N1944E ✈ 14-Oct-2013 ✈ 6S5 - KIDA

Flight Track Log - Related Links

Times and Time Zones

All times are in EDT time to prevent confusion due to time zone crossing. See the N1944E flight status page for this flight to view local times or setup timezone preferences in your user account.

Time Position Orientation Groundspeed Altitude Reporting Facility
EDT Latitude Longitude Course Direction KTS MPH feet Rate Location/Type
01:57AM 46.0233 -113.9097 150° Southeast 123 142 13,600  Level Salt Lake Center
01:58AM 45.9883 -113.8869 156° South 130 150 14,400 793 Climbing Salt Lake Center
01:59AM 45.9542 -113.8519 145° Southeast 132 152 15,200 1,091 Climbing Salt Lake Center
02:00AM 45.9233 -113.8225 146° Southeast 138 159 16,600 1,150 Climbing Salt Lake Center
02:01AM 45.8886 -113.7928 149° Southeast 142 163 17,500 843 Climbing Salt Lake Center
02:02AM 45.9763 -113.9086 150° Southeast  Level Estimated
02:02AM 45.8500 -113.7628 152° Southeast 145 167 18,300  Level Salt Lake Center
02:03AM 45.8203 -113.7311 143° Southeast 147 169 19,000 347 Climbing Salt Lake Center
02:04AM 45.7778 -113.6889 145° Southeast 182 209 19,000 50 Level Salt Lake Center
02:05AM 45.7278 -113.6489 151° Southeast 203 234 19,100 -50 Climbing Salt Lake Center
02:06AM 45.6667 -113.5933 148° Southeast 218 251 18,900 -50 Descending Salt Lake Center
02:07AM 45.6236 -113.5447 142° Southeast 216 249 19,000 50 Climbing Salt Lake Center
02:08AM 45.5769 -113.5053 149° Southeast 205 236 19,000 -50 Level Salt Lake Center
02:09AM 45.5192 -113.4586 150° Southeast 218 251 18,900  Descending Salt Lake Center
02:10AM 45.4689 -113.4144 148° Southeast 216 249 19,000 50 Climbing Salt Lake Center
02:11AM 45.4219 -113.3694 146° Southeast 214 246 19,000 50 Level Salt Lake Center
02:12AM 45.3728 -113.3258 148° Southeast 216 249 19,100 100 Climbing Salt Lake Center
02:13AM 45.3172 -113.2744 147° Southeast 215 247 19,200 99 Climbing Salt Lake Center
02:14AM 45.2694 -113.2317 148° Southeast 213 245 19,300 50 Climbing Salt Lake Center
02:15AM 45.2206 -113.1906 149° Southeast 214 246 19,300 -99 Level Salt Lake Center
02:16AM 45.1658 -113.1383 146° Southeast 212 244 19,100 -99 Descending Salt Lake Center
02:17AM 45.1128 -113.0964 151° Southeast 220 253 19,100 -50 Level Salt Lake Center
02:18AM 45.0636 -113.0522 148° Southeast 221 254 19,000 -50 Descending Salt Lake Center
02:19AM 45.0144 -113.0067 147° Southeast 220 253 19,000  Level Salt Lake Center
02:20AM 44.9547 -112.9575 150° Southeast 222 255 19,000  Level Salt Lake Center
02:21AM 44.9047 -112.9139 148° Southeast 220 253 19,000  Level Salt Lake Center
02:22AM 44.8553 -112.8733 150° Southeast 217 250 19,000  Level Salt Lake Center
02:23AM 44.7975 -112.8253 149° Southeast 215 247 19,000  Level Salt Lake Center
02:24AM 44.7494 -112.7828 148° Southeast 214 246 19,000  Level Salt Lake Center
02:25AM 44.7031 -112.7383 146° Southeast 213 245 19,000 -50 Level Salt Lake Center
02:26AM 44.6458 -112.6900 149° Southeast 213 245 18,900 -347 Descending Salt Lake Center
02:27AM 44.5944 -112.6450 148° Southeast 219 252 18,300 -700 Descending Salt Lake Center
02:28AM 44.5394 -112.5978 149° Southeast 229 264 17,500 -694 Descending Salt Lake Center
02:29AM 44.4769 -112.5436 148° Southeast 235 270 16,900 -645 Descending Salt Lake Center
02:30AM 44.4244 -112.5000 149° Southeast 234 269 16,200 -694 Descending Salt Lake Center
02:31AM 44.3725 -112.4550 148° Southeast 232 267 15,500 -645 Descending Salt Lake Center
02:32AM 44.3211 -112.4106 148° Southeast 230 265 14,900 -650 Descending Salt Lake Center
02:33AM 44.2625 -112.3586 148° Southeast 227 261 14,200 -397 Descending Salt Lake Center
02:34AM 44.2150 -112.3169 148° Southeast 221 254 14,100 -50 Descending Salt Lake Center
02:35AM 44.1681 -112.2789 150° Southeast 213 245 14,100  Level Salt Lake Center
02:36AM 44.1150 -112.2322 148° Southeast 206 237 14,100  Level Salt Lake Center
02:37AM 44.0672 -112.1931 149° Southeast 206 237 14,100  Level Salt Lake Center
02:38AM 44.0189 -112.1531 149° Southeast 208 239 14,100 -397 Level Salt Lake Center
02:39AM 43.9592 -112.1094 152° Southeast 213 245 13,300 -793 Descending Salt Lake Center
02:40AM 43.9072 -112.0675 150° Southeast 219 252 12,500 -800 Descending Salt Lake Center
02:41AM 43.8556 -112.0281 151° Southeast 222 255 11,700 -942 Descending Salt Lake Center
02:42AM 43.7967 -111.9819 151° Southeast 220 253 10,600 -992 Descending Salt Lake Center
02:43AM 43.7456 -111.9431 151° Southeast 220 253 9,700 -950 Descending Salt Lake Center
02:44AM 43.6958 -111.9058 152° Southeast 217 250 8,700 -1,140 Descending Salt Lake Center
02:45AM 43.6444 -111.9250 195° South 212 244 7,400 -1,279 Descending Salt Lake Center